Regional Weather Roundup
Issued by NWS

Home | Current Version | Previous Version | Graphics & Text | Print | Product List | Glossary On
Versions: 1 2 3 4 5 6 7 8 9 10 11 12 13 14 15 16 17 18 19 20 21 22 23 24 25 26 27 28 29 30 31 32 33 34 35 36 37 38 39 40 41 42 43 44 45 46 47 48 49 50
000
ASUS43 KLSX 291057
RWRMO

WEATHER SUMMARY FOR MISSOURI
NATIONAL WEATHER SERVICE SPRINGFIELD MO
600 AM CDT MON AUG 29 2016

NOTE: "FAIR" INDICATES FEW OR NO CLOUDS BELOW 12,000 FEET WITH NO
       SIGNIFICANT WEATHER AND/OR OBSTRUCTIONS TO VISIBILITY.
       CURRENT SKY AND/OR WEATHER CONDITIONS ARE NOT AVAILABLE FOR
       CHILLICOTHE AND FARMINGTON.

MOZ001>031-035>038-043-044-053-054-291200-
...NORTHERN AND WESTERN MISSOURI...

CITY           SKY/WX    TMP DP  RH WIND       PRES   REMARKS
KANSAS CTY INT PTCLDY    71  67  87 E6        30.14S
LEE`S SUMMIT   CLEAR     71  69  93 NE6       30.15R
ST JOSEPH      CLOUDY    69  68  96 CALM      30.14R

$$
MOZ066>068-077>081-088>096-101>105-291200-
...SOUTHWEST MISSOURI...

CITY           SKY/WX    TMP DP  RH WIND       PRES   REMARKS
SPRINGFIELD    CLEAR     72  67  84 CALM      30.14R
JOPLIN         CLEAR     71  69  93 VRB5      30.13R

$$
MOZ032>034-039>042-045>050-055>058-069>072-291200-
...CENTRAL MISSOURI...

CITY           SKY/WX    TMP DP  RH WIND       PRES   REMARKS
COLUMBIA       NOT AVBL
JEFFERSON CITY PTCLDY    71  70  96 CALM      30.13R FOG
SEDALIA        CLEAR     72  69  90 CALM      30.14S

$$
MOZ051-052-059>065-291200-
...EAST CENTRAL MISSOURI...

CITY           SKY/WX    TMP DP  RH WIND       PRES   REMARKS
ST LOUIS INTL  CLEAR     77  72  84 CALM      30.14R
SPIRIT OF STL  CLEAR     71  71 100 CALM      30.12S FOG

$$
MOZ072>076-082>087-097>100-106>115-291200-
...SOUTH CENTRAL AND SOUTHEAST MISSOURI...

CITY           SKY/WX    TMP DP  RH WIND       PRES   REMARKS
CAPE GIRARDEAU CLEAR     71  70  96 CALM      30.11R FOG
FARMINGTON     PTCLDY    70  70 100 CALM      30.15S
POPLAR BLUFF   CLEAR     74  72  93 CALM      30.09S
WEST PLAINS    CLEAR     71  68  90 CALM      30.17R FOG

$$



USA.gov is the U.S. government's official web portal to all federal, state and local government web resources and services.